Wind_Speed
9 8 7 6 5 4 2 1 0 1 1 2 4 5 5 6 6 6 6 7 7 7 8 8 8 9 8 7 8 8 9 9 8 9 8 8 8 8 8 8 9 8 8 8
10 9 9 8 7 5 3 2 2 2 1 1 2 3 4 5 5 6 5 6 6 6 6 7 8 8 8 7 7 7 8 8 8 8 8 8 8 8 8 7 7 8 8 8
10 10 10 9 7 6 5 4 4 5 4 3 3 3 3 4 4 5 4 5 5 5 6 7 6 6 7 8 7 7 7 7 7 7 7 7 7 7 7 7 7 7 7 8
12 12 10 9 8 8 7 6 6 6 6 5 5 4 4 5 5 5 5 5 5 5 6 7 6 5 6 7 6 6 7 7 6 6 6 6 6 6 7 7 7 7 7 7
13 13 12 10 9 9 8 8 7 7 7 5 5 6 5 5 5 5 5 5 5 5 5 6 6 5 5 5 6 6 6 6 6 5 6 6 6 6 7 7 7 7 8 8
15 14 13 12 11 11 10 10 9 8 7 7 6 7 5 5 6 6 6 5 5 5 5 5 5 5 5 5 5 5 5 5 5 5 6 6 6 7 8 8 8 8 8 8
16 15 14 13 13 13 12 11 10 9 9 9 9 8 7 6 8 8 7 7 6 5 5 4 4 5 6 5 6 6 6 6 6 6 6 7 7 7 8 9 9 9 9 9
15 14 15 15 15 14 13 12 12 12 11 11 11 10 8 8 8 8 8 8 7 6 6 5 5 5 5 5 6 7 7 7 7 7 8 8 9 9 10 10 10 10 10 11
16 15 14 15 15 15 14 14 14 14 12 12 11 10 9 8 8 9 9 9 9 8 7 6 6 6 6 6 7 8 8 8 9 9 9 10 11 12 12 12 11 12 12 12
16 15 15 15 15 15 15 15 15 14 14 14 12 10 9 9 9 10 10 10 10 8 7 6 6 7 7 8 8 9 9 10 10 11 11 11 12 13 13 13 13 13 13 12
17 16 15 16 17 15 16 16 16 15 15 15 13 11 10 11 11 11 11 11 10 9 9 8 8 9 9 9 9 10 10 11 12 13 12 12 13 14 14 15 14 14 14 14
18 17 17 17 17 17 18 17 17 17 16 16 15 12 12 12 11 11 12 11 11 11 11 11 11 11 11 11 11 11 12 13 14 14 14 14 14 14 15 16 16 16 16 16
18 18 18 18 18 18 18 18 18 18 17 17 16 13 13 12 12 12 12 13 12 12 13 13 13 13 13 13 13 14 14 15 15 15 16 16 16 16 17 18 18 18 17 18
19 19 19 19 19 19 18 18 18 18 19 18 16 14 13 13 12 13 13 14 14 14 14 15 15 15 16 16 16 16 17 17 17 17 18 18 19 19 19 19 20 20 21 21
21 21 20 20 19 19 19 19 19 19 18 18 17 16 15 15 15 15 15 15 15 15 15 15 16 16 17 18 19 19 20 20 20 20 20 21 22 22 22 22 22 23 23 23
22 22 21 21 20 19 19 19 20 20 19 19 19 19 17 17 17 17 17 16 16 16 16 16 16 17 18 19 19 21 22 22 23 22 23 24 25 24 25 24 24 24 25 25
24 23 23 22 21 22 21 20 21 21 20 19 20 19 18 18 19 19 19 19 19 18 18 17 18 19 20 20 21 23 24 25 25 25 25 26 26 26 26 26 26 26 26 27
25 25 25 24 23 24 22 21 22 22 22 21 21 21 21 21 21 21 21 21 20 20 20 20 20 21 21 22 23 24 25 25 26 26 27 27 27 27 27 27 27 27 28 28
26 26 26 26 26 25 24 24 23 23 24 23 22 22 22 22 22 22 22 22 22 22 22 23 23 24 24 25 26 26 27 27 27 27 27 28 28 28 28 28 29 29 29 29
27 27 27 27 27 27 25 25 25 25 25 23 23 23 23 22 22 22 23 24 24 24 25 25 26 26 26 27 28 28 28 28 27 28 28 29 29 29 29 29 29 29 29 30
28 28 27 27 27 27 26 25 25 25 24 23 24 24 24 24 24 24 25 25 26 26 26 26 26 27 28 28 29 29 29 29 28 28 29 29 29 30 30 30 30 30 30 29
28 28 28 27 27 26 25 25 26 25 24 24 25 25 26 26 26 26 27 27 27 27 27 27 28 28 29 30 30 30 30 29 29 30 30 30 30 31 31 30 30 31 31 30
28 28 28 27 27 26 25 25 26 26 26 26 27 27 28 28 27 28 28 28 28 28 28 29 29 29 30 31 31 31 30 29 29 30 31 31 31 31 31 31 32 31 31 31
28 28 28 28 28 28 27 26 26 28 28 29 29 29 29 28 28 29 29 29 29 30 30 30 31 31 31 31 31 31 30 30 30 31 31 32 32 31 31 32 32 31 32 31
27 28 28 28 27 28 29 29 29 29 30 30 30 30 29 30 30 30 30 30 30 31 31 32 32 31 31 30 30 30 31 31 32 32 32 32 31 31 31 30 31 32 32 32
26 28 28 28 29 29 28 29 29 30 31 30 30 30 30 30 31 31 32 32 32 32 32 33 32 32 31 31 31 31 31 32 33 33 33 32 31 31 31 30 30 30 30 31
Wind_Direction
205 201 196 194 195 207 195 137 65 70 89 43 34 19 20 24 23 19 24 31 32 32 36 38 40 44 50 52 49 45 43 38 39 44 45 45 47 48 48 47 43 40 37 30
215 211 207 208 208 221 236 250 252 251 246 299 320 344 0 6 12 8 13 19 21 22 32 38 39 38 40 45 42 40 36 33 35 39 41 41 40 42 44 41 38 36 31 26
217 214 213 214 219 222 234 250 263 269 271 295 304 318 322 336 343 346 354 5 9 18 18 17 31 32 32 35 35 32 32 30 32 32 32 33 29 29 29 27 24 23 20 18
216 216 220 226 232 232 242 252 265 274 276 282 285 298 295 302 321 327 334 347 1 8 13 13 24 23 29 29 26 22 23 26 29 28 22 17 12 12 14 13 11 9 6 6
221 222 226 234 241 246 250 256 265 272 281 284 285 287 293 300 308 316 323 338 352 358 1 3 15 18 17 15 12 12 12 12 15 17 11 5 357 354 357 359 359 357 356 356
228 229 231 236 240 248 253 259 265 270 278 280 289 291 292 290 294 301 312 324 339 343 344 354 4 10 5 1 0 358 360 357 355 352 347 345 344 341 344 342 345 345 343 341
231 232 235 240 242 248 252 259 264 272 277 282 283 285 284 284 291 292 300 309 318 326 332 344 357 3 -0 354 352 350 346 339 334 332 329 328 326 326 328 326 328 330 331 328
235 235 236 240 246 249 249 254 262 270 276 280 278 277 277 283 289 292 296 299 302 312 326 330 338 349 351 349 340 340 340 333 326 320 315 318 318 317 317 319 321 321 320 323
234 237 238 240 242 245 246 252 258 266 273 278 279 279 274 274 283 290 293 292 294 301 312 326 334 328 331 336 331 327 327 327 326 319 312 313 316 317 315 312 314 318 319 321
232 235 234 237 241 242 245 253 260 268 276 280 282 279 281 279 278 287 291 291 292 298 300 313 325 319 319 322 324 319 319 319 319 317 313 313 311 313 318 313 309 313 314 317
231 233 229 235 241 244 248 254 261 266 271 279 282 281 283 283 281 282 287 286 284 290 293 300 306 308 309 311 315 313 309 309 310 309 307 309 308 311 313 313 305 306 308 309
231 234 235 238 242 246 251 255 261 263 268 273 277 278 277 279 281 279 282 281 281 284 290 295 299 302 304 306 308 309 305 304 304 304 303 304 304 306 306 307 301 299 302 303
233 237 240 243 246 248 252 256 260 262 265 269 273 278 274 275 279 281 283 282 279 279 284 291 296 300 303 306 306 306 305 305 304 303 303 303 302 303 303 303 300 295 296 299
239 244 247 250 254 253 254 258 263 266 268 272 274 276 273 274 279 281 284 286 283 281 281 286 292 294 295 298 302 302 303 302 301 301 302 301 301 301 301 302 300 298 295 296
241 246 250 253 253 252 254 255 260 264 266 269 272 272 271 271 274 280 283 285 284 285 283 284 287 290 293 297 300 301 299 297 298 300 299 298 299 300 299 300 297 296 295 295
243 247 249 251 253 252 254 255 257 262 265 268 271 273 273 272 275 280 282 281 282 285 285 285 288 289 292 296 298 299 298 299 298 297 296 295 296 297 298 298 295 294 293 293
245 248 251 254 255 253 253 256 259 262 264 267 270 272 274 277 277 279 280 280 282 285 289 290 291 291 291 294 297 299 299 299 298 297 296 295 295 296 297 296 294 293 292 292
246 248 252 255 255 254 255 256 259 261 265 268 270 271 273 276 279 278 277 279 282 285 288 291 291 290 290 292 295 298 298 297 297 297 297 297 296 295 296 296 295 294 292 290
247 249 252 254 256 257 256 258 261 263 265 267 270 271 273 277 279 278 278 280 283 285 288 290 291 291 292 293 294 296 297 296 295 296 297 297 297 296 296 295 295 295 293 290
245 249 252 254 256 258 258 260 262 263 265 267 268 269 273 277 279 279 279 280 283 285 286 288 289 290 292 293 294 294 295 295 294 295 295 295 296 295 296 297 296 295 294 292
245 247 250 253 256 259 259 260 263 264 267 268 269 270 272 275 277 279 278 279 282 284 286 288 289 292 292 293 294 295 294 294 294 294 294 295 295 294 294 294 294 294 295 295
245 247 249 252 256 259 260 260 262 265 267 268 270 272 274 275 276 278 278 278 280 282 285 287 290 291 292 293 294 295 297 294 293 293 294 295 295 293 293 293 294 294 295 295
246 248 251 252 256 259 261 262 262 263 266 269 271 273 275 275 276 276 275 277 278 280 283 286 288 290 292 293 295 296 299 298 297 295 294 294 294 294 293 293 294 294 295 295
248 250 252 254 254 256 259 262 264 265 267 270 273 275 275 276 277 278 279 280 279 278 281 284 286 288 290 292 294 296 297 299 298 298 297 296 295 293 294 295 294 295 295 295
249 250 252 254 256 258 258 260 263 266 268 270 271 274 276 278 278 278 279 280 279 280 280 281 283 286 288 291 292 294 296 298 297 296 297 296 296 296 296 295 295 294 294 294
250 252 254 256 258 260 261 261 262 265 268 270 272 274 276 278 279 279 279 279 279 279 280 280 282 285 289 291 293 294 295 295 296 295 295 296 296 295 295 294 296 296 295 293
Height
5907 5908 5909 5910 5910 5910 5910 5910 5911 5911 5910 5910 5910 5910 5910 5909 5908 5907 5906 5905 5904 5902 5901 5900 5898 5898 5897 5896 5895 5893 5892 5891 5890 5888 5888 5887 5886 5885 5883 5882 5881 5880 5880 5879
5907 5907 5908 5909 5909 5910 5910 5910 5910 5911 5910 5910 5910 5910 5910 5910 5909 5908 5907 5906 5904 5903 5901 5900 5899 5898 5897 5896 5895 5894 5893 5892 5891 5889 5888 5888 5886 5885 5884 5883 5882 5882 5880 5879
5905 5906 5907 5908 5909 5909 5910 5910 5910 5910 5910 5910 5910 5911 5910 5910 5909 5908 5907 5906 5904 5903 5902 5900 5899 5898 5898 5896 5895 5894 5893 5892 5891 5890 5889 5888 5887 5886 5885 5884 5883 5882 5881 5880
5903 5904 5905 5907 5907 5908 5909 5909 5909 5909 5909 5909 5910 5910 5910 5909 5909 5908 5907 5906 5905 5903 5902 5901 5899 5898 5897 5896 5895 5894 5893 5892 5891 5890 5889 5888 5887 5886 5885 5884 5883 5882 5881 5880
5901 5902 5904 5905 5906 5907 5907 5908 5908 5908 5908 5908 5908 5909 5910 5908 5908 5908 5907 5906 5905 5903 5902 5901 5899 5898 5897 5896 5895 5894 5893 5892 5891 5890 5889 5888 5887 5886 5885 5884 5883 5882 5881 5879
5899 5900 5902 5903 5904 5905 5906 5906 5906 5906 5907 5907 5907 5907 5908 5908 5907 5907 5906 5905 5904 5903 5902 5901 5899 5898 5897 5896 5895 5894 5893 5891 5891 5890 5889 5888 5887 5886 5885 5884 5883 5881 5880 5878
5897 5898 5900 5901 5902 5903 5904 5905 5905 5905 5906 5906 5906 5906 5907 5906 5906 5906 5905 5904 5903 5902 5901 5900 5898 5897 5896 5895 5894 5893 5892 5891 5890 5889 5888 5887 5886 5885 5884 5882 5881 5880 5878 5877
5894 5896 5898 5899 5900 5901 5901 5903 5904 5904 5904 5904 5904 5904 5905 5905 5905 5904 5904 5903 5902 5901 5900 5899 5897 5896 5895 5894 5893 5892 5891 5890 5889 5888 5887 5886 5885 5884 5882 5881 5880 5878 5877 5875
5891 5893 5894 5895 5897 5898 5899 5900 5902 5902 5902 5902 5902 5903 5903 5903 5903 5902 5902 5901 5901 5900 5899 5898 5896 5896 5895 5894 5893 5891 5890 5889 5888 5887 5886 5884 5883 5882 5881 5879 5878 5876 5875 5873
5888 5890 5891 5892 5894 5895 5897 5898 5899 5899 5899 5899 5900 5900 5901 5901 5901 5901 5900 5900 5899 5899 5898 5897 5895 5894 5893 5892 5891 5890 5889 5888 5887 5886 5884 5883 5881 5880 5879 5877 5876 5874 5873 5871
5885 5887 5889 5890 5891 5892 5894 5895 5896 5896 5897 5897 5897 5901 5899 5899 5899 5899 5898 5897 5897 5897 5896 5895 5894 5893 5891 5890 5889 5888 5887 5886 5884 5883 5882 5880 5879 5877 5876 5875 5873 5871 5870 5869
5881 5884 5885 5887 5888 5889 5891 5892 5893 5894 5895 5894 5895 5899 5896 5896 5896 5896 5896 5895 5894 5894 5894 5893 5892 5890 5889 5888 5887 5886 5884 5883 5881 5880 5878 5876 5875 5874 5873 5871 5869 5868 5867 5865
5878 5881 5882 5884 5887 5887 5887 5889 5890 5891 5891 5891 5892 5896 5893 5893 5893 5893 5893 5892 5891 5891 5891 5890 5889 5888 5886 5885 5884 5883 5881 5880 5878 5877 5875 5873 5872 5870 5869 5867 5866 5864 5863 5861
5875 5877 5879 5881 5882 5883 5884 5886 5887 5887 5887 5888 5889 5890 5890 5890 5890 5890 5889 5889 5888 5887 5887 5886 5885 5884 5883 5882 5880 5879 5878 5876 5874 5873 5871 5869 5868 5866 5865 5863 5862 5860 5858 5856
5870 5872 5874 5876 5878 5879 5880 5882 5883 5883 5884 5885 5886 5886 5887 5886 5886 5886 5886 5885 5884 5884 5883 5882 5881 5880 5879 5877 5876 5874 5872 5871 5869 5868 5866 5865 5863 5861 5860 5858 5857 5855 5853 5851
5866 5868 5870 5871 5873 5874 5876 5878 5879 5879 5880 5881 5881 5882 5883 5882 5882 5882 5882 5881 5880 5879 5878 5878 5876 5875 5874 5872 5871 5869 5867 5866 5864 5863 5861 5859 5857 5856 5854 5853 5851 5849 5847 5845
5861 5863 5865 5867 5869 5870 5872 5874 5874 5875 5876 5877 5877 5879 5878 5878 5878 5878 5877 5876 5875 5874 5874 5873 5872 5870 5869 5867 5865 5864 5862 5860 5858 5857 5855 5853 5851 5850 5848 5846 5844 5842 5841 5839
5856 5858 5860 5862 5864 5865 5869 5869 5870 5871 5871 5872 5873 5873 5873 5873 5873 5872 5872 5871 5870 5870 5869 5868 5866 5865 5863 5861 5860 5858 5856 5854 5852 5850 5848 5846 5844 5843 5841 5839 5837 5835 5833 5830
5850 5852 5854 5856 5857 5859 5862 5864 5865 5865 5866 5867 5867 5868 5868 5867 5867 5867 5866 5865 5864 5864 5863 5862 5860 5859 5857 5855 5853 5851 5849 5847 5845 5843 5841 5839 5837 5835 5833 5831 5829 5826 5824 5822
5844 5846 5849 5850 5851 5853 5857 5858 5858 5860 5860 5861 5861 5861 5862 5861 5861 5861 5860 5859 5858 5857 5856 5855 5854 5852 5850 5848 5846 5844 5842 5840 5837 5835 5833 5831 5829 5827 5825 5823 5821 5818 5816 5814
5838 5840 5842 5844 5845 5847 5850 5851 5852 5854 5855 5855 5855 5855 5855 5855 5855 5854 5853 5852 5852 5851 5850 5849 5847 5845 5843 5841 5839 5837 5834 5832 5830 5828 5826 5824 5821 5819 5817 5815 5812 5810 5808 5806
5831 5833 5836 5837 5839 5843 5843 5844 5846 5847 5847 5848 5848 5848 5848 5848 5847 5847 5846 5845 5844 5843 5843 5841 5840 5838 5836 5834 5831 5829 5827 5825 5822 5820 5818 5816 5813 5811 5809 5806 5804 5802 5799 5797
5825 5828 5829 5832 5835 5836 5837 5838 5839 5840 5840 5841 5841 5841 5841 5840 5840 5839 5838 5837 5836 5836 5835 5834 5832 5831 5828 5826 5824 5822 5819 5817 5815 5812 5810 5807 5805 5802 5800 5797 5795 5792 5790 5788
5818 5821 5823 5825 5827 5829 5830 5831 5831 5832 5833 5833 5833 5833 5833 5832 5832 5831 5830 5829 5828 5827 5827 5825 5824 5823 5821 5819 5817 5814 5812 5809 5807 5804 5802 5799 5797 5794 5791 5788 5785 5784 5782 5780
5812 5814 5816 5818 5820 5821 5823 5823 5824 5825 5825 5825 5825 5825 5825 5824 5823 5822 5822 5821 5820 5819 5818 5817 5816 5814 5813 5811 5809 5806 5804 5801 5799 5796 5793 5791 5788 5786 5783 5780 5777 5775 5773 5771
5806 5807 5809 5811 5813 5814 5815 5816 5816 5817 5817 5817 5817 5817 5817 5816 5815 5814 5812 5811 5810 5809 5809 5808 5807 5806 5804 5802 5800 5798 5795 5793 5791 5788 5785 5782 5780 5777 5774 5772 5769 5765 5763 5762